Portada
METAR-TAF:

METAR-TAF

Aeroports :

Ranchi, Índia

latitud: 23-18-51N, longitud: 85-19-18E, altitud: 646 m

Observació

L'informe es va fer fa 17 minuts, a les 03:00 UTC
Vent calma
Temperatura 16°C
Humitat 82%
Pressió 1019 hPa
Visibilitat: 1300 m
Boira superficial

METAR: VERC 120300Z 00000KT 1300 MIFG NSC 16/13 Q1019 BECMG 1500 BR

Hora: 08:47 (03:17 UTC)


TAF: manca

Observacions i pronòstics meteorològics de més de 4000 aeroports (METAR i TAF).

Les estacions disponibles són els punts grocs i vermells al mapa.

Posi el ratolí al punt desitjat per veure el nom de l'estació.

Feu clic per veure les observacions i els pronòstics meteorològics.

Per canviar el mapa: feu clic els botons verds amb una creu de color negre per apropar; al botó verd amb un guió per allunyar la imatge; o en les fletxes verdes per a mapes adjacents.


METAR-TAF: